Weather in Ilet'

Russia / Mari El Republic     56°34′18″N   49°30′03″E
temp.,
°C
wind,
m/s
gust,
m/s
humid.,
%
clouds,
%
prec.,
mm/h
press.,
hPa
HPBL,
m
6 august, fri
fri600:00+12nnw22740 0.0 101732
03:00+11n23727 0.0 101745
06:00+14n236799 0.0 1018104
09:00+20nne23475 0.0 1018716
12:00+23n22360 0.0 10181977
15:00+23nnw233472 0.0 10172087
18:00+20n2354100 0.0 101771
21:00+16ne236298 0.0 101842
7 august, sat
sat700:00+16e2360100 0.0 101871
03:00+16ene2258100 0.0 101837
06:00+14nne2479100 0.3 102096
09:00+14nne1287100 0.7 102074
12:00+14nne2493100 1.4 1021149
15:00+15ene238699 1.7 1020156
18:00+16ene237785 0.0 1020110
21:00+14ene237397 0.0 102054
8 august, sun
sun800:00+16ene236793 0.0 102179
03:00+15e246850 0.0 1021107
06:00+16ese25716 0.0 1022161
09:00+22ese344932 0.0 1022661
12:00+25se2243100 0.0 10211127
15:00+26se2242100 0.0 10211218
18:00+23ese2360100 0.0 102148
21:00+18ese366976 0.0 102194
9 august, mon
mon900:00+16se3668100 0.0 1022110
03:00+16se3761100 0.0 1022140
06:00+17se3762100 0.0 1022179
09:00+23s3647100 0.0 1021411
12:00+28s463633 0.0 1020947
15:00+26sse244782 0.0 1019284
18:00+27s225271 0.0 101813
21:00+22ssw33615 0.0 101848
10 august, tue
tue1000:00+19w24675 0.0 101866
03:00+18nw22775 0.0 101821
06:00+20nw257797 0.0 1018126
09:00+25nnw345472 0.0 1019676
12:00+28nnw454248 0.0 10181672
15:00+28nnw4440100 0.0 10181756
18:00+24nnw2560100 0.0 1018123
21:00+19nne237318 0.0 101854